Wind_Speed
7 10 12 8 10 12 9 9 19 23 30 26 19 26 25 6 9 13 14 11 7 12 14 14 17 22 25 27 30 31 33 37 38 39 39 38 35 35 35 35 33 37 21 15
6 7 21 4 13 12 15 17 20 12 18 29 27 34 37 22 7 18 16 7 6 14 12 14 19 21 23 27 31 32 34 37 40 41 39 36 37 32 34 33 34 37 20 16
12 16 20 11 12 12 14 16 18 22 20 28 36 36 29 19 12 6 5 1 12 12 18 21 20 22 25 30 32 32 35 39 42 40 36 36 35 33 34 34 32 33 21 15
12 12 14 20 20 14 18 17 24 22 19 30 21 19 32 33 8 19 20 22 16 21 19 21 23 24 25 27 33 34 37 41 41 40 34 34 34 33 29 28 28 29 19 12
8 9 11 17 15 17 19 18 19 20 34 25 28 33 15 12 15 10 10 10 14 19 19 25 26 27 32 33 29 31 36 39 39 39 35 34 33 31 31 31 27 26 20 11
10 15 15 16 15 13 14 18 19 28 26 21 13 13 21 27 5 13 13 7 13 16 13 23 25 28 33 37 36 37 37 38 37 36 33 33 30 31 30 29 25 22 20 15
8 16 13 13 14 10 18 17 18 22 41 30 26 7 23 23 10 10 12 15 14 8 16 21 21 26 28 31 36 41 39 34 35 35 33 33 32 30 29 29 24 18 20 18
9 14 10 15 16 17 15 13 16 27 24 23 30 27 22 9 6 8 13 10 14 16 18 22 20 24 28 28 27 34 36 32 35 34 33 33 31 28 27 27 24 18 18 19
6 7 16 17 22 15 16 15 16 22 14 19 24 24 12 16 6 10 9 9 17 22 20 21 21 23 28 31 31 34 35 33 36 36 33 30 29 27 26 25 24 20 19 17
12 15 4 16 24 15 12 21 18 17 14 22 31 31 25 27 11 13 23 20 17 21 22 22 24 27 29 32 35 35 35 33 34 35 33 30 28 27 26 25 24 21 20 20
15 18 19 17 12 16 10 14 24 23 24 30 23 29 37 16 13 12 23 19 20 24 20 23 28 29 30 33 36 36 36 35 33 33 31 30 27 26 25 23 23 22 22 20
16 20 17 14 11 23 28 30 11 17 20 24 20 33 34 31 15 25 18 16 17 19 17 23 31 31 32 35 35 38 36 35 34 32 31 30 28 25 23 22 23 22 21 20
19 20 15 6 8 23 24 11 12 22 25 16 17 32 45 31 25 12 4 20 24 21 19 25 30 33 35 34 34 38 38 36 34 32 32 29 27 26 25 25 23 21 20 20
19 18 16 13 17 12 20 21 11 23 22 22 17 17 30 27 31 20 21 20 18 23 20 26 29 33 36 33 35 40 39 38 36 34 31 30 28 27 27 27 26 24 22 21
17 15 16 9 9 17 19 23 18 17 19 22 26 22 29 30 44 21 11 14 16 21 25 28 30 32 33 36 37 40 40 38 36 36 33 30 30 27 27 29 30 28 26 25
16 14 15 15 15 17 18 21 23 19 20 24 32 29 27 34 32 23 21 17 20 20 27 31 31 32 35 37 38 41 40 38 38 36 36 33 31 30 29 29 30 31 30 29
16 15 18 20 11 24 25 22 33 23 30 18 29 33 32 28 28 28 21 22 18 19 25 30 33 33 35 38 40 42 40 37 38 37 39 36 31 29 30 30 32 32 33 34
21 21 21 23 22 22 26 27 27 20 29 23 26 27 26 27 26 38 7 29 29 23 29 31 33 35 39 39 40 41 40 38 39 38 40 38 36 34 31 32 33 34 35 36
25 26 25 25 24 19 19 33 29 16 19 24 23 20 18 25 28 21 25 20 24 27 31 34 37 36 40 40 41 43 41 38 41 41 42 40 41 38 34 35 36 36 37 39
28 29 28 29 33 26 24 39 39 13 21 27 29 34 19 14 21 27 31 26 32 32 36 37 41 41 42 41 42 44 40 37 39 40 43 43 41 39 38 42 40 39 40 41
33 33 27 29 22 15 29 34 27 34 29 31 34 31 26 28 30 29 30 35 37 38 38 39 39 41 42 43 43 44 39 39 40 40 44 43 41 40 40 44 46 46 44 44
28 35 41 19 24 29 37 37 37 38 26 28 30 28 30 30 34 37 38 38 36 40 42 40 42 40 41 42 42 43 40 41 41 41 44 44 43 43 45 47 48 47 54 48
34 40 44 32 18 30 32 37 26 39 39 33 36 32 31 32 33 35 38 44 45 50 25 50 44 46 48 45 43 43 44 44 44 45 49 45 47 47 47 53 45 48 57 59
38 43 34 35 31 37 26 30 43 46 38 34 37 35 35 36 36 38 39 42 45 42 53 39 55 47 46 47 43 42 43 43 45 45 48 46 46 51 46 49 45 55 61 66
42 37 26 19 29 37 32 36 45 42 42 35 36 34 37 38 39 40 41 43 46 47 49 52 52 53 48 48 48 46 46 46 47 49 51 52 45 52 45 42 47 47 49 49
39 40 38 43 36 37 39 36 34 32 35 37 37 37 35 37 40 41 43 43 44 46 48 50 52 55 56 54 49 49 51 51 54 58 54 42 47 50 45 44 48 50 50 36
Wind_Direction
128 294 287 47 279 302 329 324 306 322 342 338 306 300 308 300 311 317 325 329 339 3 3 357 354 356 352 355 348 344 340 339 336 337 335 333 338 337 337 338 337 331 314 294
74 273 268 204 276 304 318 324 316 318 320 300 302 297 300 296 15 333 332 12 356 358 2 357 356 354 352 351 346 343 339 337 339 337 336 334 338 339 343 347 339 335 309 285
261 287 312 301 298 310 309 308 313 312 307 310 290 296 300 312 317 271 260 109 26 2 349 351 353 357 353 348 343 340 339 338 338 338 336 337 339 340 343 345 344 339 325 287
271 276 271 273 288 315 299 276 281 309 301 288 290 291 309 327 1 341 304 79 345 346 346 352 349 351 350 347 343 341 340 338 338 338 334 333 337 338 341 345 345 350 333 319
263 236 286 266 272 272 280 303 313 318 327 287 282 296 311 318 349 331 2 304 338 335 346 349 351 347 346 344 346 341 339 340 341 338 336 333 335 337 339 343 345 348 348 320
244 253 246 268 288 302 320 352 310 318 322 341 294 329 300 337 9 48 337 322 354 26 332 337 346 341 341 339 342 346 346 344 342 340 338 335 336 334 338 345 349 350 351 333
355 343 303 278 295 330 297 315 314 316 312 348 336 310 312 318 13 87 325 348 357 360 321 332 339 334 338 339 342 342 345 343 342 340 337 335 335 336 339 344 347 1 3 357
272 302 262 259 276 309 311 320 316 311 312 320 315 285 349 323 153 144 284 302 335 329 324 326 340 334 333 336 341 339 339 343 347 344 340 336 334 335 338 341 345 348 354 11
180 265 283 283 284 307 311 299 304 294 314 313 300 316 67 3 328 335 223 307 320 320 325 326 335 335 332 336 343 340 341 345 349 348 342 337 333 332 338 342 341 345 352 358
210 231 248 271 300 335 327 333 326 328 321 299 304 325 329 344 21 223 190 339 342 322 330 329 333 339 338 339 341 343 342 351 347 346 342 338 333 334 339 342 342 344 341 340
249 242 232 251 301 317 302 302 303 306 313 310 319 323 322 298 336 329 324 312 324 330 331 329 330 334 337 340 339 341 342 348 348 346 341 338 333 332 337 340 341 342 341 337
252 255 251 261 259 261 275 294 279 299 289 302 330 321 322 327 337 332 331 313 322 316 322 322 322 327 332 333 339 338 341 346 345 344 341 336 334 332 333 336 338 339 338 335
244 256 263 210 265 268 286 319 322 313 315 330 316 321 331 323 320 80 332 303 305 316 327 323 324 324 328 330 338 338 341 342 341 341 341 335 333 330 332 333 330 336 335 332
252 254 261 214 235 298 329 323 313 288 289 310 308 306 315 312 310 288 307 308 294 297 322 318 322 325 329 329 332 337 338 339 339 340 341 334 327 331 331 329 328 327 329 328
255 260 265 254 223 271 276 283 279 277 282 294 290 285 277 290 295 318 202 301 294 300 314 316 325 328 333 336 328 331 334 337 336 336 338 335 329 325 325 325 321 319 319 319
260 273 278 277 258 278 280 274 272 273 277 281 282 287 294 301 293 322 320 303 298 317 313 318 322 326 324 328 330 331 332 334 332 332 332 332 330 327 321 317 314 313 310 309
270 269 275 283 265 263 274 280 281 250 264 268 287 286 299 301 295 302 295 285 318 319 316 321 324 327 328 328 326 328 332 332 331 330 331 328 324 324 321 316 314 312 311 308
275 278 279 285 280 273 297 293 291 279 286 286 288 288 300 293 311 304 309 312 316 331 323 319 323 325 325 326 326 327 330 329 330 329 330 325 322 320 318 317 315 312 311 309
273 274 278 274 277 282 262 272 300 258 308 283 279 275 271 299 306 302 299 304 320 318 319 318 319 319 320 320 323 327 329 327 329 328 331 327 324 317 316 320 318 315 313 311
287 280 281 282 280 269 287 261 259 306 307 299 291 304 257 310 304 298 299 313 315 316 315 314 316 318 320 320 322 327 328 325 326 325 329 328 324 319 311 314 316 315 313 308
266 251 289 278 279 280 271 275 292 281 286 300 298 297 314 303 301 301 306 309 310 308 308 307 310 312 317 319 322 324 323 321 324 324 327 323 318 317 312 313 313 312 311 309
271 275 278 271 247 248 261 275 266 302 283 291 297 293 293 295 297 301 303 301 301 298 299 306 310 310 313 317 319 318 316 319 322 323 322 323 313 310 310 311 314 311 322 306
250 253 263 269 279 265 259 284 274 278 282 296 290 289 289 289 289 291 296 301 306 305 287 314 313 314 314 316 318 317 316 317 319 322 324 324 324 310 308 311 306 325 323 316
253 255 251 260 257 261 273 271 276 282 291 286 282 285 286 287 288 290 293 296 300 301 304 314 311 313 314 314 314 314 312 313 314 317 317 318 316 317 320 317 313 312 316 316
266 257 278 262 277 270 249 263 267 281 279 284 279 283 285 286 289 291 292 295 298 301 304 306 308 310 313 312 310 311 311 312 311 311 312 313 315 324 322 316 313 313 315 318
261 259 250 269 267 274 280 278 288 282 278 282 286 289 288 287 287 290 292 293 295 297 299 302 304 306 308 305 306 310 310 311 311 313 316 312 319 325 320 313 314 313 318 318
Height
5945 5948 5948 5945 5951 5950 5948 5949 5947 5937 5936 5930 5932 5927 5916 5895 5911 5912 5911 5910 5908 5905 5904 5904 5902 5899 5895 5892 5888 5882 5877 5871 5865 5858 5851 5845 5842 5837 5830 5825 5820 5816 5811 5810
5947 5952 5947 5946 5947 5948 5948 5947 5944 5943 5942 5935 5925 5919 5916 5912 5908 5912 5908 5908 5908 5906 5903 5902 5900 5898 5893 5890 5886 5881 5875 5869 5862 5855 5848 5842 5836 5833 5829 5825 5819 5811 5806 5806
5947 5946 5947 5945 5946 5946 5946 5947 5942 5939 5936 5933 5920 5909 5911 5908 5907 5904 5909 5906 5907 5907 5902 5897 5897 5894 5892 5888 5884 5878 5873 5866 5859 5853 5846 5840 5835 5830 5825 5820 5815 5809 5804 5803
5947 5949 5948 5946 5945 5945 5944 5942 5937 5934 5930 5919 5915 5911 5910 5908 5911 5905 5889 5868 5905 5903 5901 5896 5894 5891 5890 5888 5882 5876 5869 5863 5856 5849 5844 5838 5834 5828 5825 5821 5815 5808 5802 5801
5944 5945 5946 5946 5944 5941 5939 5936 5932 5928 5926 5920 5918 5910 5910 5904 5908 5909 5903 5908 5906 5903 5898 5895 5892 5889 5884 5883 5881 5876 5869 5861 5853 5846 5841 5836 5830 5826 5820 5816 5811 5807 5801 5799
5938 5940 5940 5940 5939 5937 5935 5933 5930 5925 5922 5913 5915 5909 5904 5905 5904 5903 5909 5909 5904 5902 5898 5896 5893 5888 5884 5878 5874 5870 5866 5857 5851 5844 5838 5832 5828 5823 5818 5813 5809 5804 5800 5797
5937 5937 5937 5938 5937 5935 5935 5934 5932 5927 5918 5915 5912 5905 5906 5903 5903 5902 5908 5905 5904 5904 5899 5896 5893 5888 5885 5880 5872 5865 5861 5857 5849 5842 5836 5831 5825 5820 5816 5811 5807 5804 5800 5796
5937 5937 5935 5936 5934 5934 5933 5932 5930 5924 5921 5917 5907 5901 5904 5898 5901 5897 5908 5905 5903 5901 5897 5893 5892 5887 5883 5880 5875 5867 5860 5854 5848 5841 5834 5829 5823 5819 5814 5809 5805 5802 5799 5793
5935 5939 5933 5933 5932 5932 5930 5929 5927 5920 5919 5917 5909 5893 5892 5896 5895 5898 5900 5898 5899 5897 5894 5890 5888 5885 5880 5875 5871 5864 5858 5851 5843 5837 5832 5827 5822 5817 5813 5808 5804 5800 5797 5795
5931 5931 5934 5931 5928 5928 5926 5925 5923 5921 5915 5913 5906 5906 5896 5896 5891 5895 5872 5894 5893 5892 5889 5887 5883 5881 5878 5872 5866 5862 5855 5850 5842 5836 5830 5825 5820 5815 5811 5806 5802 5798 5795 5792
5927 5928 5930 5929 5929 5930 5928 5926 5920 5917 5914 5909 5907 5901 5898 5898 5896 5894 5886 5890 5889 5887 5886 5885 5880 5877 5875 5870 5864 5859 5852 5845 5840 5834 5828 5823 5819 5814 5810 5806 5801 5797 5793 5791
5924 5922 5924 5926 5926 5923 5923 5921 5917 5914 5913 5907 5904 5898 5895 5890 5885 5884 5885 5887 5888 5885 5883 5882 5877 5874 5872 5867 5862 5855 5850 5843 5837 5832 5827 5822 5817 5813 5808 5804 5799 5795 5792 5788
5918 5918 5919 5922 5923 5918 5919 5917 5911 5913 5908 5907 5904 5897 5882 5882 5876 5866 5882 5881 5880 5880 5881 5878 5875 5871 5868 5863 5858 5852 5846 5840 5835 5830 5824 5820 5815 5810 5806 5801 5798 5794 5789 5786
5914 5915 5916 5917 5917 5917 5914 5912 5914 5913 5908 5906 5904 5904 5890 5878 5873 5872 5876 5876 5876 5875 5878 5873 5872 5869 5863 5859 5854 5849 5843 5837 5832 5827 5822 5817 5812 5807 5802 5798 5795 5791 5787 5782
5910 5912 5911 5912 5913 5915 5915 5912 5912 5911 5909 5906 5901 5898 5889 5887 5869 5839 5845 5873 5874 5870 5871 5869 5867 5865 5860 5855 5849 5845 5838 5833 5828 5823 5818 5814 5809 5804 5799 5795 5791 5787 5783 5779
5906 5907 5907 5907 5907 5908 5907 5906 5904 5903 5903 5901 5896 5892 5886 5882 5878 5865 5862 5868 5866 5864 5864 5865 5863 5861 5857 5852 5846 5840 5834 5829 5824 5819 5813 5809 5804 5800 5795 5790 5786 5782 5778 5774
5903 5904 5903 5902 5903 5900 5898 5897 5881 5890 5893 5891 5890 5886 5883 5878 5873 5868 5868 5864 5865 5856 5860 5860 5857 5855 5852 5847 5842 5835 5829 5824 5818 5813 5808 5803 5798 5794 5789 5784 5780 5775 5771 5767
5898 5899 5899 5898 5896 5894 5893 5881 5887 5887 5888 5887 5885 5879 5875 5868 5867 5854 5863 5857 5859 5856 5855 5855 5853 5850 5846 5842 5836 5830 5824 5818 5813 5808 5803 5797 5793 5788 5783 5777 5772 5768 5763 5759
5894 5894 5893 5893 5893 5893 5895 5877 5868 5882 5885 5879 5878 5877 5874 5869 5868 5866 5862 5862 5859 5854 5852 5851 5849 5847 5842 5837 5830 5824 5819 5813 5808 5802 5796 5791 5787 5781 5776 5772 5766 5761 5757 5752
5887 5887 5888 5889 5887 5887 5887 5874 5873 5873 5878 5874 5869 5865 5861 5864 5863 5858 5854 5848 5853 5850 5849 5846 5841 5838 5835 5829 5824 5818 5813 5807 5801 5796 5789 5784 5779 5774 5769 5764 5759 5754 5748 5742
5882 5865 5870 5877 5880 5884 5870 5865 5867 5875 5873 5872 5866 5863 5859 5861 5861 5857 5855 5851 5849 5844 5842 5838 5836 5832 5827 5821 5816 5811 5805 5799 5794 5787 5780 5775 5770 5765 5760 5755 5749 5744 5738 5732
5878 5873 5871 5865 5873 5875 5867 5865 5865 5865 5865 5864 5865 5863 5860 5858 5854 5850 5847 5845 5843 5839 5835 5832 5828 5821 5820 5816 5809 5803 5797 5792 5787 5780 5775 5768 5761 5755 5749 5744 5738 5732 5727 5719
5875 5872 5865 5867 5864 5863 5865 5862 5858 5858 5858 5858 5857 5856 5854 5852 5851 5848 5845 5838 5834 5828 5784 5817 5816 5810 5805 5804 5800 5793 5788 5783 5777 5771 5764 5759 5753 5746 5740 5734 5729 5723 5717 5710
5864 5859 5858 5862 5865 5858 5857 5854 5850 5848 5849 5851 5848 5847 5846 5844 5843 5840 5837 5833 5828 5825 5815 5812 5806 5802 5798 5792 5788 5785 5780 5775 5769 5763 5756 5750 5743 5737 5731 5724 5719 5714 5707 5700
5852 5851 5830 5847 5849 5846 5841 5845 5840 5843 5844 5841 5840 5837 5836 5835 5833 5831 5828 5825 5821 5816 5811 5804 5798 5791 5786 5780 5774 5772 5768 5764 5759 5753 5746 5739 5733 5726 5719 5715 5710 5705 5699 5690
5847 5845 5844 5839 5842 5834 5837 5834 5835 5837 5833 5833 5829 5827 5829 5826 5823 5821 5818 5816 5812 5808 5803 5797 5790 5781 5772 5762 5754 5755 5754 5751 5745 5738 5734 5724 5721 5715 5711 5705 5701 5695 5687 5681